EW6135 Weather Reports


Display with metric or nautical units.
time (UTC)temp
F
wind
direction
speed
MPH
gust
MPH
rain 1hr
in
rain 24hr
in
rain mn
in
humidity
%
barometer
mb
20260831180537 89 92 0.0 3.0 0.00 1.88 0.00 75 1018.8
20260831180044 88 94 1.0 4.0 0.00 1.88 0.00 73 1018.9
20260831175537 88 72 2.0 5.0 0.00 1.88 0.00 75 1019.0
20260831175041 88 342 2.0 5.0 0.00 1.88 0.00 73 1019.0
20260831174537 88 38 2.0 3.0 0.00 1.88 0.00 74 1019.1
20260831174036 87 259 0.0 2.0 0.00 1.88 0.00 74 1019.3
20260831173536 86 102 0.0 1.0 0.00 1.88 0.00 74 1019.2
20260831173036 86 102 0.0 4.0 0.00 1.88 0.00 75 1019.2
20260831172535 87 56 1.0 5.0 0.00 1.88 0.00 74 1019.2
20260831171536 88 23 1.0 6.0 0.00 1.88 0.00 72 1019.3
20260831171035 87 53 1.0 6.0 0.00 1.88 0.00 73 1019.3
20260831170536 87 32 0.0 4.0 0.00 1.88 0.00 73 1019.4
20260831170035 86 26 1.0 4.0 0.00 1.88 0.00 74 1019.5
20260831165534 87 11 0.0 5.0 0.00 1.88 0.00 73 1019.5
20260831165033 88 8 2.0 5.0 0.00 1.88 0.00 71 1019.6
20260831164533 88 15 0.0 5.0 0.00 1.88 0.00 73 1019.6
20260831164031 87 245 1.0 5.0 0.00 1.88 0.00 76 1019.7
20260831163532 87 48 1.0 4.0 0.00 1.88 0.00 75 1019.7
20260831163030 86 68 2.0 4.0 0.00 1.88 0.00 75 1019.6
20260831162533 86 5 1.0 4.0 0.00 1.88 0.00 76 1019.7
20260831161528 86 320 3.0 5.0 0.00 1.88 0.00 77 1019.7
20260831161027 86 83 1.0 4.0 0.00 1.88 0.00 77 1019.7
20260831160525 86 261 1.0 4.0 0.00 1.88 0.00 78 1019.7
20260831160025 86 351 1.0 4.0 0.00 1.88 0.00 78 1019.8
20260831155526 86 342 0.0 4.0 0.00 1.88 0.00 82 1019.8
20260831155025 86 91 2.0 4.0 0.00 1.88 0.00 79 1019.8
20260831154524 86 348 1.0 3.0 0.00 1.88 0.00 79 1019.8
20260831154023 85 350 0.0 4.0 0.00 1.88 0.00 80 1019.8
20260831153525 85 252 0.0 5.0 0.00 1.88 0.00 80 1019.7
20260831153021 84 52 1.0 5.0 0.00 1.88 0.00 81 1019.7
20260831152520 84 43 1.0 5.0 0.00 1.88 0.00 82 1019.7
20260831151522 84 40 2.0 5.0 0.00 1.88 0.00 81 1019.8
20260831151021 83 2 1.0 6.0 0.00 1.88 0.00 82 1019.7
20260831150517 83 53 2.0 6.0 0.00 1.88 0.00 83 1019.7
20260831150015 83 344 0.0 5.0 0.00 1.88 0.00 84 1019.6
20260831145514 83 57 2.0 7.0 0.00 1.88 0.00 84 1019.6
20260831145014 83 35 2.0 7.0 0.00 1.88 0.00 85 1019.5
20260831144514 82 338 2.0 7.0 0.00 1.88 0.00 84 1019.6
20260831144014 83 15 3.0 7.0 0.00 1.88 0.00 84 1019.6
20260831143513 83 71 2.0 9.0 0.00 1.88 0.00 84 1019.6
20260831143013 83 285 0.0 6.0 0.00 1.88 0.00 87 1019.5
20260831142513 82 73 2.0 6.0 0.00 1.88 0.00 86 1019.6
20260831141510 82 15 1.0 7.0 0.00 1.88 0.00 89 1019.4
20260831141010 81 34 2.0 6.0 0.00 1.88 0.00 88 1019.4
20260831140511 81 32 3.0 6.0 0.00 1.88 0.00 89 1019.4
20260831140015 81 20 3.0 6.0 0.00 1.88 0.00 90 1019.4
20260831135509 81 8 3.0 6.0 0.00 1.88 0.00 90 1019.4
20260831135010 81 301 1.0 6.0 0.00 1.88 0.00 91 1019.5
20260831134508 81 75 0.0 5.0 0.00 1.88 0.00 95 1019.5
20260831134006 80 37 2.0 5.0 0.00 1.88 0.00 94 1019.4
20260831133505 80 14 1.0 4.0 0.00 1.88 0.00 96 1019.3
20260831133005 80 8 1.0 3.0 0.00 1.88 0.00 97 1019.3
20260831132505 80 360 0.0 2.0 0.00 1.88 0.00 98 1019.2
20260831131504 80 46 0.0 3.0 0.00 1.88 0.00 99 1019.2
20260831131007 79 11 0.0 3.0 0.00 1.88 0.00 99 1019.2
20260831130504 79 45 0.0 3.0 0.00 1.88 0.00 100 1019.1
20260831130002 78 65 0.0 3.0 0.00 1.88 0.00 99 1019.1
20260831125504 78 84 0.0 3.0 0.00 1.88 0.00 100 1019.1
20260831125002 77 11 0.0 3.0 0.00 1.88 0.00 99 1019.1
20260831124502 78 353 0.0 1.0 0.00 1.88 0.00 100 1019.1
20260831124002 78 15 0.0 2.0 0.00 1.88 0.00 100 1019.2
20260831123601 78 349 0.0 2.0 0.00 1.88 0.00 100 1019.1
20260831123059 77 56 1.0 2.0 0.00 1.88 0.00 100 1019.1
20260831122604 77 79 0.0 2.0 0.00 1.88 0.00 100 1019.1
20260831122159 77 221 0.0 0.0 0.00 1.88 0.00 100 1019.0
20260831121558 77 221 0.0 1.0 0.00 1.88 0.00 100 1019.0
20260831121059 75 221 0.0 1.0 0.00 1.88 0.00 100 1018.9
20260831120556 75 221 0.0 0.0 0.00 1.88 0.00 100 1019.0
20260831120053 74 221 0.0 0.0 0.00 1.88 0.00 100 1018.9
20260831115553 74 221 0.0 0.0 0.00 1.88 0.00 100 1019.0
20260831115056 74 221 0.0 0.0 0.00 1.88 0.00 100 1019.1
20260831114552 74 221 0.0 0.0 0.00 1.88 0.00 100 1019.1
20260831114053 73 221 0.0 0.0 0.00 1.88 0.00 100 1019.1
20260831113553 73 221 0.0 0.0 0.00 1.88 0.00 100 1019.0
20260831113055 73 221 0.0 0.0 0.00 1.88 0.00 100 1019.0
20260831112555 73 221 0.0 0.0 0.00 1.88 0.00 100 1019.1
20260831112153 73 221 0.0 0.0 0.00 1.88 0.00 100 1019.2
20260831111610 73 221 0.0 0.0 0.00 1.88 0.00 100 1019.2
20260831111053 73 221 0.0 0.0 0.00 1.88 0.00 100 1019.1
20260831110553 73 221 0.0 0.0 0.00 1.88 0.00 100 1019.2
20260831110053 73 221 0.0 0.0 0.00 1.88 0.00 100 1019.2
20260831105553 73 221 0.0 0.0 0.00 1.89 0.00 100 1019.2
20260831105053 73 221 0.0 0.0 0.00 1.89 0.00 100 1019.1
20260831104553 73 221 0.0 0.0 0.00 1.89 0.00 100 1019.1
20260831104052 73 221 0.0 0.0 0.00 1.89 0.00 100 1019.1
20260831103552 73 221 0.0 0.0 0.00 1.89 0.00 100 1019.0
20260831103102 73 221 0.0 0.0 0.00 1.89 0.00 100 1018.9
20260831102552 74 221 0.0 0.0 0.00 1.89 0.00 100 1018.9
20260831102152 74 221 0.0 0.0 0.00 1.89 0.00 100 1018.8
20260831101556 74 221 0.0 0.0 0.00 1.89 0.00 100 1018.7
20260831101052 74 222 0.0 1.0 0.00 1.89 0.00 100 1018.8
20260831100554 74 221 0.0 1.0 0.00 1.89 0.00 100 1018.8
20260831100051 74 221 0.0 1.0 0.00 1.89 0.00 100 1018.8
20260831095552 73 221 0.0 1.0 0.00 1.91 0.00 100 1018.7
20260831095050 73 221 0.0 1.0 0.00 1.91 0.00 100 1018.7
20260831094550 73 221 0.0 1.0 0.00 1.91 0.00 100 1018.7
20260831094053 73 221 0.0 1.0 0.00 1.91 0.00 100 1018.7
20260831093549 73 221 0.0 1.0 0.00 1.91 0.00 100 1018.7
20260831093049 73 221 0.0 1.0 0.00 1.91 0.00 100 1018.6
20260831092548 72 221 0.0 1.0 0.00 1.91 0.00 100 1018.6
20260831092150 72 221 0.0 0.0 0.00 1.91 0.00 100 1018.4
20260831091559 72 221 0.0 0.0 0.00 1.91 0.00 100 1018.4
20260831091049 71 221 0.0 1.0 0.00 1.91 0.00 100 1018.4
20260831090550 71 221 0.0 0.0 0.00 1.91 0.00 100 1018.3
20260831090049 71 221 0.0 0.0 0.00 1.91 0.00 100 1018.3
20260831085550 71 221 0.0 0.0 0.00 1.91 0.00 100 1018.2
20260831085047 71 221 0.0 1.0 0.00 1.91 0.00 100 1018.2
20260831084547 71 221 0.0 1.0 0.00 1.91 0.00 100 1018.2
20260831084047 71 221 0.0 0.0 0.00 1.91 0.00 100 1018.3
20260831083547 72 221 0.0 1.0 0.00 1.91 0.00 100 1018.2
20260831083047 71 221 0.0 1.0 0.00 1.91 0.00 100 1018.3
20260831082546 71 221 0.0 0.0 0.00 1.91 0.00 100 1018.3
20260831082147 71 221 0.0 0.0 0.00 1.91 0.00 100 1018.3
20260831081550 71 221 0.0 0.0 0.00 1.91 0.00 100 1018.3
20260831081048 71 221 0.0 0.0 0.00 1.91 0.00 100 1018.2
20260831080546 71 221 0.0 0.0 0.00 1.91 0.00 100 1018.2
20260831080105 71 221 0.0 0.0 0.00 1.91 0.00 100 1018.1
20260831075545 71 221 0.0 0.0 0.00 1.91 0.00 100 1018.1
20260831075044 71 221 0.0 0.0 0.00 1.91 0.00 100 1018.1
20260831074545 71 221 0.0 0.0 0.00 1.91 0.00 100 1018.3
20260831074044 71 221 0.0 0.0 0.00 1.91 0.00 100 1018.3
20260831073545 71 222 0.0 0.0 0.00 1.91 0.00 100 1018.3
20260831073107 71 221 0.0 0.0 0.00 1.91 0.00 100 1018.4
20260831072541 72 221 0.0 0.0 0.00 1.91 0.00 100 1018.5
20260831072142 72 221 0.0 0.0 0.00 1.91 0.00 100 1018.6
20260831071550 72 221 0.0 0.0 0.00 1.91 0.00 100 1018.6
20260831071040 72 221 0.0 0.0 0.00 1.91 0.00 100 1018.6
20260831070544 72 221 0.0 1.0 0.00 1.91 0.00 100 1018.7
20260831070040 71 221 0.0 0.0 0.00 1.91 0.00 100 1018.7
20260831065539 71 221 0.0 0.0 0.00 1.91 0.00 100 1018.8
20260831065038 71 222 0.0 0.0 0.00 1.91 0.00 100 1018.8
20260831064542 71 221 0.0 0.0 0.00 1.91 0.00 100 1018.8
20260831064037 71 221 0.0 1.0 0.00 1.91 0.00 100 1018.9
20260831063537 71 221 0.0 1.0 0.00 1.91 0.00 100 1018.9
20260831063043 72 221 0.0 0.0 0.00 1.91 0.00 100 1019.0
20260831062536 71 221 0.0 0.0 0.00 1.91 0.00 100 1019.2
20260831062136 71 221 0.0 0.0 0.00 1.91 0.00 100 1019.2
20260831061538 71 221 0.0 0.0 0.00 1.91 0.00 100 1019.2
20260831061035 72 222 0.0 0.0 0.00 1.91 0.00 100 1019.2
20260831060534 72 221 0.0 0.0 0.00 1.91 0.00 100 1019.3
20260831060035 72 221 0.0 0.0 0.00 1.91 0.00 100 1019.3
20260831055534 72 221 0.0 0.0 0.00 1.91 0.00 100 1019.3
20260831055033 72 221 0.0 0.0 0.00 1.91 0.00 100 1019.3
20260831054533 72 221 0.0 0.0 0.00 1.91 0.00 100 1019.5
20260831054032 72 221 0.0 0.0 0.00 1.91 0.00 100 1019.6
20260831053532 72 221 0.0 0.0 0.00 1.91 0.00 100 1019.6
20260831053032 72 221 0.0 0.0 0.00 1.91 0.00 100 1019.5
20260831052531 72 221 0.0 0.0 0.00 1.91 0.00 100 1019.5
20260831052132 73 221 0.0 0.0 0.00 1.91 0.00 100 1019.5
20260831051536 73 221 0.0 0.0 0.00 1.91 0.00 100 1019.6
20260831051030 73 221 0.0 0.0 0.00 1.91 0.00 100 1019.5
20260831050530 73 221 0.0 0.0 0.00 1.91 0.00 100 1019.5
20260831050030 73 221 0.0 1.0 0.00 1.91 0.00 100 1019.5
20260831045530 73 221 0.0 1.0 0.00 1.91 0.00 100 1019.6
20260831045029 73 221 0.0 0.0 0.00 1.91 0.00 100 1019.5
20260831044530 73 221 0.0 0.0 0.00 1.91 0.00 100 1019.4
20260831044029 73 221 0.0 0.0 0.00 1.91 0.00 100 1019.4
20260831043528 73 221 0.0 0.0 0.00 1.91 0.00 100 1019.4
20260831043028 73 221 0.0 0.0 0.00 1.91 0.00 100 1019.5
20260831042528 73 222 0.0 0.0 0.00 1.91 0.00 100 1019.5
20260831042127 73 221 0.0 0.0 0.00 1.91 0.00 100 1019.5
20260831041528 73 221 0.0 0.0 0.00 1.91 0.00 100 1019.5
20260831041031 73 221 0.0 0.0 0.00 1.91 0.00 100 1019.5
20260831040527 73 221 0.0 0.0 0.00 1.91 0.00 100 1019.6
20260831040030 73 221 0.0 0.0 0.00 1.92 1.91 100 1019.6
20260831035526 73 221 0.0 0.0 0.00 1.92 1.91 100 1019.6
20260831035026 73 221 0.0 0.0 0.00 1.92 1.91 100 1019.6
20260831034529 73 221 0.0 0.0 0.00 1.92 1.91 100 1019.6
20260831034025 73 221 0.0 0.0 0.00 1.92 1.91 100 1019.7
20260831033525 73 221 0.0 0.0 0.00 1.92 1.91 100 1019.7
20260831033035 73 221 0.0 0.0 0.00 1.92 1.91 100 1019.7
20260831032525 73 221 0.0 0.0 0.00 1.92 1.91 100 1019.7
20260831032125 73 221 0.0 0.0 0.00 1.92 1.91 100 1019.6
20260831031031 73 221 0.0 0.0 0.00 1.92 1.91 100 1019.6
20260831030526 73 221 0.0 0.0 0.00 1.92 1.91 100 1019.7
20260831030026 73 221 0.0 0.0 0.00 1.92 1.91 100 1019.6
20260831025526 73 221 0.0 0.0 0.00 1.92 1.91 100 1019.7
20260831025031 73 221 0.0 0.0 0.00 1.92 1.91 100 1019.7
20260831024530 73 221 0.0 0.0 0.00 1.92 1.91 100 1019.6
20260831024026 73 221 0.0 0.0 0.00 1.92 1.91 100 1019.6
20260831023526 73 221 0.0 0.0 0.00 1.92 1.91 100 1019.7
20260831023025 73 221 0.0 0.0 0.00 1.92 1.91 100 1019.7
20260831022528 73 221 0.0 0.0 0.00 1.92 1.91 100 1019.7
20260831022128 73 221 0.0 0.0 0.00 1.92 1.91 100 1019.7
20260831021541 73 221 0.0 0.0 0.00 1.92 1.91 100 1019.6
20260831021025 73 221 0.0 0.0 0.00 1.92 1.91 100 1019.6
20260831020525 73 221 0.0 0.0 0.00 1.92 1.91 100 1019.6
20260831020025 73 221 0.0 0.0 0.00 1.92 1.91 100 1019.6
20260831015526 73 221 0.0 0.0 0.00 1.92 1.91 100 1019.7
20260831015027 73 222 0.0 0.0 0.00 1.92 1.91 100 1019.8
20260831014524 74 221 0.0 0.0 0.00 1.92 1.91 100 1019.9
20260831014024 74 221 0.0 0.0 0.00 1.92 1.91 100 1019.9
20260831013524 74 221 0.0 0.0 0.00 1.92 1.91 100 1019.8
20260831013024 74 221 0.0 0.0 0.00 1.92 1.91 100 1019.8
20260831012524 74 221 0.0 0.0 0.00 1.92 1.91 100 1019.9
20260831012124 74 221 0.0 0.0 0.00 1.92 1.91 100 1019.8
20260831011536 74 221 0.0 0.0 0.00 1.92 1.91 100 1019.8
20260831011022 74 221 0.0 0.0 0.00 1.92 1.91 100 1019.8
20260831010521 74 221 0.0 1.0 0.00 1.92 1.91 100 1019.6
20260831010021 74 221 0.0 1.0 0.00 1.92 1.91 100 1019.5
20260831005521 74 221 0.0 0.0 0.00 1.92 1.91 100 1019.4
20260831005027 74 221 0.0 1.0 0.00 1.92 1.91 100 1019.3
20260831004521 74 221 0.0 1.0 0.00 1.92 1.91 100 1019.3
20260831004022 74 221 0.0 0.0 0.00 1.92 1.91 100 1019.2
20260831003521 74 221 0.0 0.0 0.01 1.92 1.91 100 1019.2
20260831003020 74 221 0.0 2.0 0.01 1.92 1.91 100 1019.1
20260831002521 74 221 0.0 2.0 0.02 1.92 1.91 100 1019.2
20260831002122 74 221 0.0 0.0 0.02 1.92 1.91 100 1019.2
20260831001533 74 221 0.0 0.0 0.02 1.92 1.91 100 1019.1
20260831001020 74 221 0.0 1.0 0.02 1.92 1.91 100 1019.1
20260831000521 74 221 0.0 1.0 0.02 1.92 1.91 100 1019.2
20260831000020 74 221 0.0 0.0 0.02 1.93 1.91 100 1019.2
20260830235520 74 221 0.0 1.0 0.02 1.93 1.91 100 1019.1
20260830235020 74 221 0.0 1.0 0.02 1.93 1.91 100 1019.1
20260830234525 74 221 0.0 0.0 0.00 0.00 1.91 100 1019.1
20260830234022 74 221 0.0 3.0 0.02 1.93 1.91 100 1019.1
20260830233521 74 346 0.0 3.0 0.02 1.93 1.91 100 1019.2
20260830233019 74 340 0.0 3.0 0.01 1.92 1.90 100 1019.2
20260830232519 74 56 0.0 3.0 0.01 1.91 1.89 100 1019.0
20260830232121 74 2 0.0 0.0 0.01 1.91 1.89 100 1019.0
20260830231520 74 2 0.0 0.0 0.01 1.91 1.89 100 1019.0
20260830231020 74 2 0.0 0.0 0.02 1.91 1.89 99 1019.0
20260830230521 74 2 0.0 0.0 0.02 1.91 1.89 99 1019.0
20260830230017 74 2 0.0 2.0 0.02 1.91 1.89 99 1019.2
20260830225516 74 2 0.0 2.0 0.03 1.91 1.89 99 1019.4
20260830225015 74 2 0.0 1.0 0.04 1.91 1.89 99 1019.5
20260830224515 74 2 0.0 2.0 0.05 1.91 1.89 99 1019.6
20260830224015 74 18 0.0 2.0 0.05 1.91 1.89 99 1019.8
20260830223515 74 57 0.0 2.0 0.06 1.91 1.89 99 1019.9
20260830223019 74 57 0.0 4.0 0.06 1.91 1.89 99 1020.0
20260830222514 74 354 0.0 4.0 0.05 1.90 1.88 99 1020.0
20260830222115 74 243 0.0 1.0 0.05 1.90 1.88 99 1020.1
20260830221514 74 243 0.0 1.0 0.05 1.90 1.88 99 1020.1
20260830221014 74 243 0.0 1.0 0.05 1.90 1.88 99 1020.1
20260830220514 74 243 0.0 2.0 0.04 1.89 1.87 99 1020.0
20260830220016 74 352 0.0 2.0 0.04 1.89 1.87 99 1020.0
20260830215514 74 210 0.0 0.0 0.04 1.89 1.87 99 1020.1
20260830215014 74 39 0.0 0.0 0.03 1.88 1.86 99 1020.2
20260830214514 74 39 0.0 1.0 0.02 1.87 1.85 99 1020.2
20260830214013 74 39 0.0 2.0 0.01 1.86 1.84 99 1020.3
20260830213515 74 39 0.0 2.0 0.01 1.86 1.84 99 1020.2
20260830213014 74 248 0.0 2.0 0.01 1.85 1.83 99 1020.2
20260830212513 75 248 1.0 2.0 0.02 1.85 1.83 99 1020.2
20260830212113 74 220 0.0 0.0 0.03 1.85 1.83 99 1019.9
20260830211514 74 221 0.0 0.0 0.04 1.85 1.83 99 1019.8
20260830211012 74 221 0.0 0.0 0.04 1.85 1.83 99 1019.9
20260830210513 74 220 0.0 0.0 0.05 1.85 1.83 99 1020.0
20260830210016 74 220 0.0 0.0 0.06 1.85 1.83 99 1020.1
20260830205512 74 221 0.0 1.0 0.08 1.85 1.83 99 1020.2
20260830205012 74 221 0.0 1.0 0.10 1.85 1.83 99 1020.3
20260830204526 74 220 0.0 1.0 0.13 1.85 1.83 99 1020.1
20260830204011 74 221 0.0 1.0 0.15 1.85 1.83 99 1020.0
20260830203512 74 221 0.0 2.0 0.16 1.85 1.83 98 1019.8
20260830203012 74 221 0.0 3.0 0.25 1.85 1.83 98 1019.9
20260830202511 74 264 1.0 4.0 0.35 1.84 1.82 98 1020.1
20260830202111 74 258 1.0 3.0 0.60 1.82 1.80 98 1020.2
20260830201516 74 255 1.0 3.0 0.76 1.82 1.80 98 1020.2
20260830201013 74 248 0.0 2.0 1.03 1.81 1.79 98 1020.3
20260830200518 74 30 0.0 2.0 1.21 1.81 1.79 98 1020.5
20260830200013 74 30 0.0 3.0 1.28 1.80 1.77 98 1020.6
20260830195514 75 12 1.0 5.0 1.41 1.79 1.76 98 1020.7
20260830195012 75 49 1.0 7.0 1.42 1.77 1.74 98 1020.6
20260830194512 75 50 2.0 7.0 1.55 1.75 1.72 98 1020.6
20260830194013 75 38 1.0 8.0 1.55 1.72 1.69 98 1020.3
20260830193512 75 26 3.0 10.0 1.56 1.71 1.68 98 1020.0
20260830193011 75 344 3.0 11.0 1.62 1.68 1.65 97 1020.0
20260830192511 76 360 5.0 11.0 1.50 1.56 1.53 97 1019.9
20260830192112 77 47 5.0 12.0 1.23 1.29 1.26 97 1019.7
20260830191509 77 51 6.0 12.0 1.15 1.22 1.19 96 1019.7
20260830191013 77 21 4.0 10.0 0.90 0.96 0.93 95 1019.8
20260830190509 78 275 0.0 7.0 0.61 0.67 0.64 96 1019.8
20260830190009 78 43 4.0 7.0 0.52 0.59 0.55 95 1019.6
20260830185509 79 20 2.0 11.0 0.41 0.48 0.44 93 1019.7
20260830185009 79 10 4.0 11.0 0.30 0.37 0.33 92 1019.6
20260830184507 81 21 2.0 5.0 0.25 0.32 0.28 92 1019.8
20260830184009 82 30 2.0 5.0 0.12 0.19 0.15 90 1019.7
20260830183507 83 47 2.0 5.0 0.10 0.17 0.13 88 1019.7
20260830183007 85 25 0.0 4.0 0.09 0.16 0.12 84 1019.7
20260830182506 85 64 1.0 4.0 0.00 0.07 0.03 79 1019.8
20260830182107 86 75 0.0 3.0 0.00 0.07 0.03 80 1019.8
20260830181508 86 75 0.0 4.0 0.00 0.07 0.03 79 1019.9
20260830181007 87 34 1.0 4.0 0.00 0.07 0.03 77 1019.9